Hourly Data Report for October 09, 2019

SHEARWATER RCS
NOVA SCOTIA
Current Station Operator: ECCC - MSC

44°37'47.000" N
63°30'48.000" W
24.00 m
8205092
71264
AAW

Download Data

Hourly Data (October 2019)
Hourly Data Report for October 9, 2019
TIME
LST
Temp Definition
°C
Dew Point Definition
°C
Rel Hum Definition
%
Precip. Amount Definition
mm

Wind Dir Definition
10's deg

Wind Spd Definition
km/h
Visibility Definition
km
Stn Press Definition
kPa
Hmdx Definition


Wind Chill Definition


Weather Definition


00:00 11.7 9.3 85 0.0 35 10   102.38     LegendNANA
01:00 11.3 9.1 87 0.0 34 11   102.44     LegendNANA
02:00 10.8 8.9 88 0.0 35 10   102.44     LegendNANA
03:00 10.5 8.4 87 0.0 1 13   102.44     LegendNANA
04:00 10.1 7.7 85 0.0 3 15   102.49     LegendNANA
05:00 9.8 7.3 85 0.0 3 10   102.57     LegendNANA
06:00 9.7 6.5 81 0.0 2 9   102.60     LegendNANA
07:00 9.4 6.0 79 0.0 2 8   102.68     LegendNANA
08:00 10.4 6.2 75 0.0 2 11   102.73     LegendNANA
09:00 11.7 6.2 69 0.0 3 15   102.74     LegendNANA
10:00 13.5 5.3 58 0.0 4 16   102.75     LegendNANA
11:00 14.7 4.8 52 0.0 5 13   102.76     LegendNANA
12:00 15.1 4.7 50 0.0 6 15   102.73     LegendNANA
13:00 16.2 3.5 42 0.0 4 13   102.69     LegendNANA
14:00 14.2 7.8 65 0.0 11 15   102.66     LegendNANA
15:00 13.8 6.7 62 0.0 11 10   102.66     LegendNANA
16:00 13.1 5.4 59 0.0 10 7   102.64     LegendNANA
17:00 12.1 5.8 65 0.0 9 5   102.66     LegendNANA
18:00 10.6 5.7 72 0.0 5 5   102.67     LegendNANA
19:00 10.1 5.8 74 0.0 6 5   102.70     LegendNANA
20:00 9.7 5.6 76 0.0 7 5   102.75     LegendNANA
21:00 9.7 4.6 71 0.0 3 7   102.72     LegendNANA
22:00 8.9 4.0 71 0.0 3 7   102.74     LegendNANA
23:00 8.2 3.8 74 0.0 5 4   102.79     LegendNANA

Notes on Data Quality.

Legend

  • E = Estimated
  • M = Missing
  • NA = Not Available*
  • [empty] = Indicates an unobserved value
Date modified: